FW7144 Weather Reports


time (UTC)temp
F
wind
direction
speed
knots
gust
knots
rain 1hr
in
rain 24hr
in
rain mn
in
humidity
%
barometer
mb
20260509015005 70 119 1.7 2.6 0.00 0.00 0.00 54 1018.0
20260509014405 70 75 0.0 1.7 0.00 0.00 0.00 53 1017.9
20260509013806 71 100 0.0 2.6 0.00 0.00 0.00 52 1017.8
20260509013230 70 167 0.0 2.6 0.00 0.00 0.00 52 1017.6
20260509012606 71 241 0.0 2.6 0.00 0.00 0.00 51 1017.5
20260509011431 72 184 0.0 5.2 0.00 0.00 0.00 48 1017.4
20260509010843 73 143 1.7 5.2 0.00 0.00 0.00 46 1017.3
20260509010205 73 333 0.0 3.5 0.00 0.00 0.00 42 1017.2
20260509005630 74 138 1.7 7.0 0.00 0.00 0.00 40 1017.1
20260509005005 75 110 2.6 6.1 0.00 0.00 0.00 38 1017.1
20260509004430 75 114 3.5 6.1 0.00 0.00 0.00 37 1017.0
20260509003805 76 95 3.5 8.7 0.00 0.00 0.00 36 1017.0
20260509003205 76 92 4.3 8.7 0.00 0.00 0.00 36 1016.9
20260509002605 77 112 3.5 10.4 0.00 0.00 0.00 36 1016.9
20260509002006 77 68 5.2 7.8 0.00 0.00 0.00 35 1017.0
20260509001406 77 97 5.2 9.6 0.00 0.00 0.00 37 1017.1
20260509000805 77 107 3.5 9.6 0.00 0.00 0.00 38 1017.0
20260509000206 77 123 5.2 13.9 0.00 0.00 0.00 38 1016.9
20260508235606 77 124 5.2 13.9 0.00 0.00 0.00 40 1016.9
20260508235006 77 131 7.0 13.9 0.00 0.00 0.00 40 1016.7
20260508234405 77 128 4.3 11.3 0.00 0.00 0.00 40 1016.7
20260508233805 79 126 4.3 12.2 0.00 0.00 0.00 38 1016.7
20260508233205 79 107 5.2 10.4 0.00 0.00 0.00 37 1016.7
20260508232605 80 100 2.6 10.4 0.00 0.00 0.00 37 1016.7
20260508232005 80 102 6.1 10.4 0.00 0.00 0.00 38 1016.7
20260508231406 81 140 5.2 9.6 0.00 0.00 0.00 37 1016.5
20260508230806 81 168 0.0 6.1 0.00 0.00 0.00 37 1016.6
20260508230206 81 135 3.5 11.3 0.00 0.00 0.00 37 1016.5
20260508225630 80 102 6.1 9.6 0.00 0.00 0.00 37 1016.4
20260508225006 81 145 2.6 10.4 0.00 0.00 0.00 36 1016.5
20260508224406 81 88 0.0 5.2 0.00 0.00 0.00 29 1016.6
20260508223806 80 90 0.0 5.2 0.00 0.00 0.00 33 1016.7
20260508223206 81 149 0.0 3.5 0.00 0.00 0.00 33 1016.7
20260508222605 81 251 0.0 5.2 0.00 0.00 0.00 33 1016.6
20260508222005 81 115 0.0 6.1 0.00 0.00 0.00 33 1016.7
20260508221430 79 229 2.6 6.1 0.00 0.00 0.00 37 1016.7
20260508220806 78 185 1.7 6.1 0.00 0.00 0.00 40 1016.7
20260508220205 77 184 0.0 7.0 0.00 0.00 0.00 40 1016.8
20260508215708 77 141 1.7 4.3 0.00 0.00 0.00 39 1016.9
20260508215005 77 131 0.0 7.0 0.00 0.00 0.00 41 1016.9
20260508214430 77 187 2.6 7.8 0.00 0.00 0.00 41 1017.1
20260508213806 78 219 0.0 6.1 0.00 0.00 0.00 41 1017.2
20260508213206 77 172 1.7 6.1 0.00 0.00 0.00 42 1017.2
20260508212606 78 154 1.7 5.2 0.00 0.00 0.00 42 1017.3
20260508212005 78 286 0.0 6.1 0.00 0.00 0.00 42 1017.3
20260508211405 77 263 0.0 7.8 0.00 0.00 0.00 44 1017.4
20260508210806 77 195 3.5 7.8 0.00 0.00 0.00 45 1017.5
20260508210206 78 124 0.0 8.7 0.00 0.00 0.00 42 1017.4
20260508205605 79 122 3.5 9.6 0.00 0.00 0.00 41 1017.6
20260508205005 78 121 3.5 9.6 0.00 0.00 0.00 42 1017.5
20260508204431 78 139 1.7 9.6 0.00 0.00 0.00 42 1017.7
20260508203831 78 115 3.5 10.4 0.00 0.00 0.00 43 1017.7
20260508203206 78 327 1.7 9.6 0.00 0.00 0.00 41 1017.7
20260508202606 79 265 2.6 9.6 0.00 0.00 0.00 40 1017.8
20260508202006 79 293 0.0 8.7 0.00 0.00 0.00 40 1017.9
20260508201405 78 117 3.5 11.3 0.00 0.00 0.00 40 1017.9
20260508200830 78 103 6.1 11.3 0.00 0.00 0.00 40 1018.0
20260508200231 79 92 1.7 12.2 0.00 0.00 0.00 39 1018.0
20260508195631 79 155 4.3 11.3 0.00 0.00 0.00 39 1018.2
20260508195005 79 129 7.0 13.9 0.00 0.00 0.00 41 1018.3
20260508194406 77 92 5.2 11.3 0.00 0.00 0.00 40 1018.4
20260508193830 79 103 5.2 10.4 0.00 0.00 0.00 38 1018.5
20260508193205 79 94 1.7 12.2 0.00 0.00 0.00 41 1018.5
20260508192606 77 87 3.5 13.9 0.00 0.00 0.00 44 1018.6
20260508192005 75 71 7.0 12.2 0.00 0.00 0.00 45 1018.7
20260508191405 75 121 6.1 15.6 0.00 0.00 0.00 45 1018.8
20260508190805 74 104 6.1 15.6 0.00 0.00 0.00 46 1018.7
20260508190205 74 88 6.1 18.2 0.00 0.00 0.00 46 1018.9
20260508185605 74 104 9.6 16.5 0.00 0.00 0.00 43 1019.0
20260508185030 76 115 7.8 16.5 0.00 0.00 0.00 43 1019.1
20260508184406 73 114 9.6 20.0 0.00 0.00 0.00 45 1019.1
20260508183805 74 107 11.3 22.6 0.00 0.00 0.00 43 1019.2
20260508183206 78 85 7.0 13.9 0.00 0.00 0.00 39 1019.1
20260508182605 80 106 0.0 9.6 0.00 0.00 0.00 33 1019.1
20260508182006 81 353 0.0 8.7 0.00 0.00 0.00 38 1019.1
20260508181406 79 258 0.0 9.6 0.00 0.00 0.00 43 1019.1
20260508180805 80 252 1.7 8.7 0.00 0.00 0.00 43 1019.2
20260508180206 79 291 3.5 12.2 0.00 0.00 0.00 43 1019.2
20260508175605 79 314 3.5 17.4 0.00 0.00 0.00 42 1019.3
20260508175005 79 278 7.8 16.5 0.00 0.00 0.00 43 1019.2
20260508174406 78 328 2.6 11.3 0.00 0.00 0.00 42 1019.4
20260508173806 79 343 4.3 12.2 0.00 0.00 0.00 41 1019.4
20260508173230 80 305 2.6 14.8 0.00 0.00 0.00 43 1019.4
20260508172605 77 268 3.5 14.8 0.00 0.00 0.00 45 1019.6
20260508172006 78 261 3.5 13.0 0.00 0.00 0.00 47 1019.8
20260508171406 76 304 1.7 11.3 0.00 0.00 0.00 50 1020.0
20260508170806 77 29 0.0 11.3 0.00 0.00 0.00 50 1020.0
20260508170205 76 275 0.0 9.6 0.00 0.00 0.00 52 1020.1
20260508165606 76 314 1.7 7.8 0.00 0.00 0.00 49 1020.2
20260508165006 75 267 0.0 11.3 0.00 0.00 0.00 53 1020.3
20260508164430 74 285 3.5 9.6 0.00 0.00 0.00 57 1020.4
20260508163805 74 278 2.6 10.4 0.00 0.00 0.00 58 1020.4
20260508163205 74 259 2.6 9.6 0.00 0.00 0.00 56 1020.5
20260508162605 73 271 3.5 11.3 0.00 0.00 0.00 60 1020.7
20260508162006 73 236 1.7 10.4 0.00 0.00 0.00 59 1020.7
20260508161405 73 258 1.7 10.4 0.00 0.00 0.00 61 1020.9
20260508160830 72 269 1.7 9.6 0.00 0.00 0.00 62 1020.9
20260508160205 72 258 3.5 7.8 0.00 0.00 0.00 64 1020.9
20260508155605 72 240 1.7 8.7 0.00 0.00 0.00 65 1021.1
20260508155030 71 298 2.6 9.6 0.00 0.00 0.00 68 1021.1
20260508154405 70 227 0.0 5.2 0.00 0.00 0.00 69 1021.2
20260508153830 70 312 0.0 5.2 0.00 0.00 0.00 70 1021.2
20260508153205 69 274 1.7 7.0 0.00 0.00 0.00 69 1021.3
20260508152606 69 274 1.7 7.0 0.00 0.00 0.00 70 1021.4
20260508152005 69 150 2.6 7.0 0.00 0.00 0.00 71 1021.4
20260508151406 68 253 2.6 7.8 0.00 0.00 0.00 72 1021.5
20260508150818 68 249 1.7 8.7 0.00 0.00 0.00 72 1021.5
20260508150206 69 277 1.7 6.1 0.00 0.00 0.00 72 1021.6
20260508145606 69 275 0.0 8.7 0.00 0.00 0.00 73 1021.5
20260508145005 68 267 2.6 6.1 0.00 0.00 0.00 73 1021.5
20260508144406 67 313 0.0 7.0 0.00 0.00 0.00 74 1021.5
20260508143817 67 247 0.0 7.0 0.00 0.00 0.00 75 1021.5
20260508143205 67 267 0.0 7.8 0.00 0.00 0.00 74 1021.5
20260508142605 67 274 0.0 7.8 0.00 0.00 0.00 74 1021.5
20260508142006 67 262 1.7 7.8 0.00 0.00 0.00 75 1021.5
20260508141405 66 287 2.6 7.8 0.00 0.00 0.00 76 1021.5
20260508140806 65 267 0.0 7.0 0.00 0.00 0.00 76 1021.5
20260508140205 65 290 0.0 5.2 0.00 0.00 0.00 77 1021.6
20260508135606 64 255 1.7 5.2 0.00 0.00 0.00 77 1021.5
20260508135005 64 263 0.0 5.2 0.00 0.00 0.00 78 1021.6
20260508134405 63 243 0.0 3.5 0.00 0.00 0.00 78 1021.6
20260508133830 63 272 1.7 3.5 0.00 0.00 0.00 78 1021.6
20260508133205 63 227 2.6 3.5 0.00 0.00 0.00 79 1021.6
20260508132606 63 247 0.0 5.2 0.00 0.00 0.00 79 1021.6
20260508132005 63 260 0.9 3.5 0.00 0.00 0.00 79 1021.6
20260508131405 63 306 0.0 1.7 0.00 0.00 0.00 79 1021.5
20260508130806 63 282 0.0 2.6 0.00 0.00 0.00 80 1021.5
20260508130206 62 238 0.0 0.0 0.00 0.00 0.00 80 1021.3
20260508125606 62 260 0.0 2.6 0.00 0.00 0.00 80 1021.4
20260508125019 62 265 1.7 1.7 0.00 0.00 0.00 81 1021.3
20260508124406 62 307 0.0 1.7 0.00 0.00 0.00 81 1021.2
20260508123805 61 296 0.0 3.5 0.00 0.00 0.00 82 1021.1
20260508123206 61 271 0.0 2.6 0.00 0.00 0.00 83 1021.1
20260508122606 61 260 0.0 0.0 0.00 0.00 0.00 83 1021.1
20260508122005 60 265 0.0 0.0 0.00 0.00 0.00 83 1021.0
20260508121405 60 265 0.0 0.0 0.00 0.00 0.00 83 1020.9
20260508120805 60 265 0.0 0.0 0.00 0.00 0.00 83 1020.9
20260508120205 60 180 0.0 0.0 0.00 0.00 0.00 83 1020.8
20260508115605 60 180 0.0 0.0 0.00 0.00 0.00 83 1020.8
20260508115005 60 180 0.0 0.0 0.00 0.00 0.00 83 1020.7
20260508114406 60 180 0.0 0.0 0.00 0.00 0.00 82 1020.7
20260508113817 60 183 0.0 0.0 0.00 0.00 0.00 82 1020.7
20260508113230 60 183 0.0 0.0 0.00 0.00 0.00 81 1020.6
20260508112630 60 183 0.0 0.0 0.00 0.00 0.00 81 1020.6
20260508112005 60 246 0.0 0.0 0.00 0.00 0.00 80 1020.5
20260508111406 61 246 0.0 1.7 0.00 0.00 0.00 80 1020.5
20260508110830 61 277 0.0 0.0 0.00 0.00 0.00 80 1020.6
20260508110230 61 350 0.0 0.0 0.00 0.00 0.00 80 1020.6
20260508105606 61 294 0.0 0.0 0.00 0.00 0.00 80 1020.6
20260508105005 61 185 0.0 0.0 0.00 0.00 0.00 80 1020.5
20260508104405 61 185 0.0 0.0 0.00 0.00 0.00 80 1020.6
20260508103805 61 185 0.0 1.7 0.00 0.00 0.00 80 1020.5
20260508103217 61 193 0.0 0.0 0.00 0.00 0.00 80 1020.5
20260508102605 61 183 0.0 0.0 0.00 0.00 0.00 80 1020.5
20260508102005 61 169 0.0 0.0 0.00 0.00 0.00 80 1020.5
20260508101406 61 198 0.0 0.0 0.00 0.00 0.00 80 1020.5
20260508100805 61 172 0.0 0.0 0.00 0.00 0.00 79 1020.5
20260508100206 61 172 0.0 0.0 0.00 0.00 0.00 79 1020.5
20260508095605 62 275 0.0 4.3 0.00 0.00 0.00 78 1020.4
20260508095030 62 269 1.7 5.2 0.00 0.00 0.00 78 1020.3
20260508094418 62 265 0.0 4.3 0.00 0.00 0.00 77 1020.3
20260508093805 63 302 1.7 6.1 0.00 0.00 0.00 77 1020.3
20260508093206 63 267 1.7 5.2 0.00 0.00 0.00 77 1020.4
20260508092630 63 271 1.7 6.1 0.00 0.00 0.00 76 1020.5
20260508092006 63 276 2.6 6.1 0.00 0.00 0.00 76 1020.6
20260508091430 63 303 1.7 5.2 0.00 0.00 0.00 76 1020.7
20260508090830 63 232 1.7 5.2 0.00 0.00 0.00 76 1020.6
20260508090206 63 278 1.7 3.5 0.00 0.00 0.00 76 1020.7
20260508085605 63 268 0.0 4.3 0.00 0.00 0.00 75 1020.8
20260508085030 64 245 0.0 2.6 0.00 0.00 0.00 75 1020.8
20260508084405 64 248 0.0 5.2 0.00 0.00 0.00 74 1020.8
20260508083818 64 272 0.9 5.2 0.00 0.00 0.00 74 1020.8
20260508083205 64 264 1.7 4.3 0.00 0.00 0.00 74 1020.7
20260508082605 64 265 0.9 3.5 0.00 0.00 0.00 74 1020.6
20260508082005 63 256 0.0 3.5 0.00 0.00 0.00 75 1020.6
20260508081406 63 294 0.0 2.6 0.00 0.00 0.00 75 1020.6
20260508080805 63 248 0.0 1.7 0.00 0.00 0.00 76 1020.6
20260508080205 63 235 0.0 0.0 0.00 0.00 0.00 76 1020.7
20260508075606 63 346 0.0 0.0 0.00 0.00 0.00 75 1020.8
20260508075005 63 346 0.0 0.0 0.00 0.00 0.00 75 1020.7
20260508074406 63 346 0.0 1.7 0.00 0.00 0.00 75 1020.8
20260508073805 63 270 0.0 1.7 0.00 0.00 0.00 75 1020.8
20260508073205 63 77 0.0 1.7 0.00 0.00 0.00 75 1020.8
20260508072630 63 316 0.0 1.7 0.00 0.00 0.00 75 1020.9
20260508072006 63 342 0.0 1.7 0.00 0.00 0.00 75 1021.0
20260508071406 62 47 0.0 1.7 0.00 0.00 0.00 75 1021.0
20260508070806 62 61 0.0 3.5 0.00 0.00 0.00 75 1021.0
20260508070206 62 73 0.9 4.3 0.00 0.00 0.00 75 1021.1
20260508065605 62 94 2.6 2.6 0.00 0.00 0.00 75 1021.0
20260508065005 62 79 1.7 2.6 0.00 0.00 0.00 75 1021.1
20260508064405 62 73 0.0 2.6 0.00 0.00 0.00 76 1021.1
20260508063830 61 55 0.0 3.5 0.00 0.00 0.00 76 1021.1
20260508063206 61 74 2.6 3.5 0.00 0.00 0.00 77 1021.1
20260508062606 60 84 1.7 3.5 0.00 0.00 0.00 78 1021.1
20260508062005 59 140 0.0 2.6 0.00 0.00 0.00 79 1021.2
20260508061406 59 86 0.0 0.0 0.00 0.00 0.00 80 1021.1
20260508060806 59 110 0.0 0.0 0.00 0.00 0.00 81 1021.1
20260508060206 59 110 0.0 1.7 0.00 0.00 0.00 81 1021.1
20260508055605 58 76 0.0 0.0 0.00 0.00 0.00 82 1021.1
20260508055006 57 31 0.0 1.7 0.00 0.00 0.00 83 1021.2
20260508054405 57 87 0.0 2.6 0.00 0.00 0.00 83 1021.1
20260508053805 56 79 0.0 1.7 0.00 0.00 0.00 83 1021.2
20260508053230 57 53 0.0 1.7 0.00 0.00 0.00 83 1021.2
20260508052606 57 37 0.0 1.7 0.00 0.00 0.00 83 1021.1
20260508052006 57 352 0.0 2.6 0.00 0.00 0.00 82 1021.2
20260508051430 57 115 0.0 2.6 0.00 0.00 0.00 82 1021.2
20260508050805 58 144 0.0 1.7 0.00 0.00 0.00 82 1021.1
20260508050205 58 184 0.0 0.0 0.00 0.00 0.00 80 1021.1
20260508045605 58 325 0.0 0.0 0.00 0.00 0.00 80 1021.2
20260508045005 58 8 0.0 1.7 0.00 0.00 0.00 79 1021.1
20260508044406 59 17 0.0 1.7 0.00 0.00 0.00 80 1021.1
20260508043805 59 121 0.0 2.6 0.00 0.00 0.00 80 1021.0
20260508043205 58 105 0.0 1.7 0.00 0.00 0.00 80 1021.0
20260508042605 59 117 0.0 0.0 0.00 0.00 0.00 81 1021.2
20260508042006 59 0 0.0 0.0 0.00 0.00 0.00 81 1021.3
20260508041405 60 265 0.0 3.5 0.00 0.00 0.00 80 1021.1
20260508040805 60 144 0.0 2.6 0.00 0.00 0.00 80 1021.0
20260508040206 60 292 0.0 1.7 0.00 0.00 0.00 80 1021.0
20260508035606 61 53 0.0 0.0 0.00 0.00 0.00 80 1020.8
20260508035005 61 353 0.0 1.7 0.00 0.00 0.00 80 1020.6
20260508034405 62 5 0.0 2.6 0.00 0.00 0.00 79 1020.6
20260508033805 62 0 0.0 0.0 0.00 0.00 0.00 78 1020.5
20260508033205 63 65 0.0 2.6 0.00 0.00 0.00 77 1020.3
20260508032605 63 72 0.0 2.6 0.00 0.00 0.00 77 1020.3
20260508032006 63 84 0.0 0.0 0.00 0.00 0.00 77 1020.1
20260508031405 64 79 0.0 0.0 0.00 0.00 0.00 76 1020.2
20260508030806 64 0 0.0 1.7 0.00 0.00 0.00 75 1020.2
20260508030205 65 307 0.0 2.6 0.00 0.00 0.00 73 1020.2
20260508025605 66 160 0.0 5.2 0.00 0.00 0.00 72 1020.0
20260508025006 66 167 1.7 6.1 0.00 0.00 0.00 72 1019.8
20260508024406 67 166 0.9 3.5 0.00 0.00 0.00 73 1020.0
20260508023805 67 116 0.0 4.3 0.00 0.00 0.00 73 1019.9
20260508023217 67 111 2.6 5.2 0.00 0.00 0.00 73 1020.1
20260508022630 67 108 0.9 5.2 0.00 0.00 0.00 72 1020.1
20260508022005 67 171 0.0 6.1 0.00 0.00 0.00 71 1019.8
20260508021430 67 166 1.7 2.6 0.00 0.00 0.00 70 1020.0
20260508020806 67 96 0.0 2.6 0.00 0.00 0.00 71 1019.9
20260508020230 66 93 0.0 4.3 0.00 0.00 0.00 71 1019.6
20260508015605 67 95 1.7 6.1 0.00 0.00 0.00 70 1019.6